User: anonymous   Login
Location: Shell Point
(30.0571°N, 84.2896°W)
Time: 19:57:34
(UTC-04:00)
Language:

Meteor 2-19 Rocket - Orbit

View from above orbital plane
View from above orbital plane
View from above satellite
View from above satellite

Ground track
Ground track

The orbit data is extracted from the following two-line orbital elements,

1 20671U 90057B   16149.88266803  .00000037  00000-0  19679-4 0  9995
2 20671  82.5456 317.5840 0014314 320.5340 199.4716 13.84601228309886
Epoch (UTC): 28 May 2016 21:11:02
Eccentricity: 0.0014314
inclination: 82.5456°
perigee height: 937 km
apogee height: 958 km
right ascension of ascending node: 317.5840°
argument of perigee: 320.5340°
revolutions per day: 13.84601228
mean anomaly at epoch: 199.4716°
orbit number at epoch: 30988

The dashed part of the orbit path shows where the satellite is in the earth's shadow,  

DLR